[[{"header":{"parameterUnit":"m.s-1","parameterCategory":1,"la1":30.2991,"la2":30.254,"lo1":-89.0895,"lo2":-89.0444,"dy":0.0017,"dx":0.0017,"nx":28,"ny":28,"refTime":"2024-08-07T21:00:00:Z","depth":0,"parameterNumber":2,"parameterNumberName":"U-component_of_WINDS"},"data":[0,0,0,0,0,0,0,0,0,0,0,0,0,0,0,0,0,0,0,0,0,0,0,0,0,0,0,0,0,0,0,0,0,0,0,0,0,0,0,0,0,0,0,0,0,0,0,0,0,0,0,0,0,0,0,0,0,0,2.4303,2.4303,0,2.4329,2.433,2.433,2.4258,2.4255,2.4253,2.4251,2.428,2.4283,2.4286,0,0,0,0,0,0,0,0,0,0,0,0,0,2.4194,2.4197,2.4303,2.4303,2.4304,2.4329,2.433,2.433,2.4258,2.4255,2.4253,2.425,2.4279,2.4283,2.4286,0,0,0,0,0,0,0,0,0,0,0,0,0,2.4233,2.4197,2.4303,2.4271,2.4268,2.4329,2.433,2.433,2.4259,2.4255,2.4252,2.4249,2.4278,2.4282,2.4287,2.4381,0,0,2.43,2.4302,0,0,0,0,0,0,0,0,2.4231,2.4237,2.4275,2.4273,2.427,2.4287,2.4302,2.4347,2.426,2.4262,2.4251,2.4247,2.4285,2.4289,2.4301,2.4382,2.4384,2.43,2.4303,2.4305,2.4306,0,0,0,0,0,0,0,2.4229,2.4236,2.4314,2.4276,2.4273,2.4256,2.4258,2.431,2.4293,2.4262,2.4257,2.4261,2.4283,2.4297,2.4301,2.4384,2.43,2.4304,2.4307,2.4308,2.4548,2.4551,0,0,0,0,0,0,2.423,2.4234,2.4313,2.4314,2.4242,2.4261,2.4263,2.4285,2.4292,2.429,2.4264,2.4257,2.4292,2.4297,2.4302,2.4416,2.4305,2.4309,2.4311,2.4544,2.4548,2.4552,0,0,0,0,0,0,2.4228,2.4237,2.4312,2.4273,2.4281,2.4267,2.4292,2.4287,2.4301,2.4293,2.429,2.4281,2.4289,2.4296,2.4363,2.4416,2.4311,2.4315,2.4539,2.4545,2.455,2.4642,0,0,0,0,0,0,2.4225,2.4237,2.4272,2.4274,2.4283,2.4371,2.4295,2.429,2.4308,2.43,2.4308,2.4306,2.4287,2.4357,2.4367,2.442,2.4318,2.4535,2.4542,2.4549,2.4634,2.465,2.4664,0,0,0,0,0,2.4221,2.4296,2.4274,2.4284,2.4326,2.4374,2.4379,2.4355,2.4313,2.4349,2.4344,2.4306,2.4408,2.4364,2.4375,2.443,2.4531,2.454,2.4548,2.4628,2.4647,2.4663,0,0,0,0,0,0,2.43,2.4296,2.4271,2.4348,2.4362,2.4361,2.4405,2.4375,2.4402,2.4393,2.4362,2.4365,2.4438,2.444,2.4391,2.4523,2.4463,2.4474,2.4519,2.4538,2.4552,2.4551,2.4322,0,0,0,0,0,2.4326,2.4364,2.4359,2.4428,2.4436,2.442,2.444,2.442,2.4433,2.4439,2.4438,2.4454,2.4489,2.4513,2.4545,2.4634,2.4636,2.4677,2.4692,2.4704,2.4715,2.4766,2.4785,2.458,2.458,2.458,0,0,2.4381,2.4384,2.441,2.4444,2.4452,2.4494,2.4425,2.4471,2.4503,2.4446,2.4509,2.451,2.4525,2.4604,2.4639,2.4608,2.4772,2.4715,2.4725,2.4729,2.4776,2.4796,2.4813,2.4586,2.4585,2.4584,0,0,2.4504,2.4508,2.4568,2.4578,2.4591,2.458,2.4595,2.4599,2.4598,2.4661,2.462,2.4657,2.4718,2.4732,2.4746,2.4877,2.4845,2.4888,2.4966,2.5016,2.5032,2.5046,2.5096,2.5114,2.4898,2.4899,2.4899,0,2.4571,2.4631,2.4602,2.4653,2.467,2.462,2.4682,2.4693,2.4717,2.4731,2.4696,2.4774,2.478,2.4864,2.4896,2.4908,2.4926,2.4888,2.5032,2.5046,2.5058,2.5106,2.5124,2.4904,2.4903,2.4903,2.4902,0,2.4715,2.4757,2.4804,2.4829,2.4851,2.4907,2.4889,2.4916,2.4894,2.4888,2.4955,2.4961,2.4995,2.5012,2.4992,2.5094,2.5075,2.5036,2.4975,2.5084,2.5128,2.5145,2.4912,2.491,2.4908,2.4907,0,0,2.4887,2.4896,2.4914,2.4926,2.4939,2.4972,2.5027,2.506,2.5085,2.5103,2.515,2.5204,2.517,2.5187,2.5167,2.521,2.5318,2.5167,2.5167,2.5197,2.5435,2.5466,2.5487,2.5296,2.5299,2.5301,2.5435,0,2.501,2.5103,2.508,2.5173,2.5215,2.5169,2.5217,2.5231,2.5227,2.5262,2.5257,2.5298,2.5247,2.5258,2.5298,2.5296,2.5365,2.5286,2.5342,2.5344,2.5342,2.5509,2.5541,2.5667,2.5451,2.5454,2.5456,0,2.5166,2.5191,2.5289,2.5297,2.5313,2.5357,2.5387,2.5421,2.5437,2.5431,2.5451,2.5424,2.5481,2.5418,2.5497,2.5443,2.5465,2.5467,2.5472,2.5478,2.5408,2.5523,2.5706,2.5726,2.5482,2.548,2.5478,0,2.5286,2.5344,2.5411,2.5422,2.5432,2.5465,2.5471,2.5483,2.5506,2.5532,2.5547,2.558,2.5599,2.5626,2.561,2.5565,2.5693,2.5628,2.5692,2.5693,2.5723,2.5722,2.5915,2.5733,2.5732,2.5732,2.5731,0,2.5427,2.5489,2.5465,2.5507,2.5576,2.555,2.562,2.562,2.5632,2.5675,2.5636,2.5677,2.5652,2.5691,2.5679,2.5748,2.5756,2.5755,2.5751,2.576,2.5761,2.5775,2.5767,2.5737,2.5736,2.5735,2.5734,0,2.5573,2.5559,2.563,2.5634,2.5637,2.5689,2.5693,2.5733,2.5726,2.5781,2.5792,2.5783,2.5827,2.5813,2.5861,2.5853,2.5942,2.5926,2.5937,2.5934,2.6,2.5996,2.6212,2.624,2.6037,2.6039,2.6041,0,2.5665,2.5713,2.5723,2.5748,2.5757,2.5799,2.5822,2.5798,2.5824,2.5847,2.5885,2.5926,2.5959,2.6033,2.6031,2.6069,2.6055,2.6128,2.606,2.6069,2.606,2.6058,2.6065,2.6142,2.6145,2.6146,2.6148,0,2.5832,2.5823,2.5857,2.5891,2.5919,2.5944,2.5966,2.5989,2.5967,2.5999,2.6044,2.6069,2.6119,2.6162,2.6196,2.6204,2.6175,2.6169,2.6187,2.6197,2.6203,2.6204,2.5977,2.6165,2.6163,2.6162,2.6161,2.616,2.5956,2.5997,2.6012,2.6052,2.6066,2.6088,2.6126,2.6125,2.6162,2.6201,2.6185,2.6238,2.6255,2.6299,2.6311,2.6354,2.6326,2.6351,2.6357,2.6365,2.6375,2.6194,2.636,2.6359,2.6359,2.6358,2.6358,0,2.6123,2.6131,2.6168,2.62,2.6233,2.62,2.6223,2.6253,2.63,2.6319,2.6351,2.6405,2.6447,2.645,2.6489,2.6524,2.6511,2.6535,2.6534,2.6537,2.6396,2.6378,2.6545,2.6545,2.6545,2.6545,2.6545,2.6545,2.6214,2.6283,2.6277,2.6353,2.636,2.6412,2.6428,2.6449,2.6464,2.6526,2.6561,2.6561,2.6575,2.6615,2.6654,2.6653,2.6671,2.6701,2.6696,2.6565,2.6546,2.6529,2.6512,2.6705,2.6705,2.6835,2.6836,2.6837]},{"header":{"parameterUnit":"m.s-1","parameterCategory":1,"la1":30.2991,"la2":30.254,"lo1":-89.0895,"lo2":-89.0444,"dy":0.0017,"dx":0.0017,"nx":28,"ny":28,"refTime":"2024-08-07T21:00:00:Z","depth":0,"parameterNumber":3,"parameterNumberName":"V-component_of_WINDS"},"data":[0,0,0,0,0,0,0,0,0,0,0,0,0,0,0,0,0,0,0,0,0,0,0,0,0,0,0,0,0,0,0,0,0,0,0,0,0,0,0,0,0,0,0,0,0,0,0,0,0,0,0,0,0,0,0,0,0,0,-0.8698,-0.8697,0,-0.864,-0.8639,-0.8639,-0.8614,-0.8614,-0.8614,-0.8615,-0.8548,-0.8546,-0.8544,0,0,0,0,0,0,0,0,0,0,0,0,0,-0.878,-0.8779,-0.8698,-0.8697,-0.8696,-0.864,-0.8639,-0.8638,-0.8614,-0.8614,-0.8614,-0.8615,-0.8549,-0.8547,-0.8544,0,0,0,0,0,0,0,0,0,0,0,0,0,-0.8735,-0.8778,-0.8698,-0.8677,-0.8675,-0.864,-0.8639,-0.8638,-0.8614,-0.8614,-0.8614,-0.8615,-0.8549,-0.8547,-0.8544,-0.8523,0,0,-0.8535,-0.8534,0,0,0,0,0,0,0,0,-0.8738,-0.8732,-0.8681,-0.8679,-0.8676,-0.8635,-0.8644,-0.8599,-0.8614,-0.8637,-0.8615,-0.8615,-0.8576,-0.8571,-0.856,-0.852,-0.8517,-0.8535,-0.8533,-0.8532,-0.8531,0,0,0,0,0,0,0,-0.8741,-0.8735,-0.8675,-0.868,-0.8677,-0.8669,-0.8663,-0.8635,-0.8606,-0.8635,-0.8633,-0.8627,-0.8575,-0.8563,-0.8558,-0.8516,-0.8535,-0.8533,-0.8531,-0.853,-0.8455,-0.8454,0,0,0,0,0,0,-0.8748,-0.8737,-0.8676,-0.8673,-0.8708,-0.8668,-0.8661,-0.8648,-0.8606,-0.86,-0.8627,-0.8626,-0.8567,-0.8561,-0.8556,-0.8528,-0.8532,-0.853,-0.8528,-0.8455,-0.8455,-0.8454,0,0,0,0,0,0,-0.875,-0.8743,-0.8679,-0.8705,-0.8696,-0.8666,-0.8651,-0.8646,-0.8634,-0.86,-0.8594,-0.862,-0.8567,-0.856,-0.8532,-0.8525,-0.8528,-0.8526,-0.8455,-0.8455,-0.8455,-0.8473,0,0,0,0,0,0,-0.8753,-0.8744,-0.8737,-0.8705,-0.8695,-0.8658,-0.8651,-0.8645,-0.863,-0.8629,-0.8592,-0.8586,-0.8567,-0.8536,-0.8529,-0.8521,-0.8523,-0.8456,-0.8455,-0.8455,-0.8472,-0.8473,-0.8473,0,0,0,0,0,-0.8756,-0.8743,-0.8737,-0.873,-0.8686,-0.8657,-0.8651,-0.8631,-0.863,-0.8622,-0.86,-0.8588,-0.8527,-0.8533,-0.8525,-0.8517,-0.8456,-0.8455,-0.8455,-0.8472,-0.8473,-0.8473,0,0,0,0,0,0,-0.8773,-0.8738,-0.8731,-0.8708,-0.8686,-0.8653,-0.8643,-0.8632,-0.8608,-0.8607,-0.8581,-0.8573,-0.8547,-0.8529,-0.8536,-0.8494,-0.8491,-0.8488,-0.8507,-0.8507,-0.8507,-0.8512,-0.8521,0,0,0,0,0,-0.8774,-0.8757,-0.8726,-0.8708,-0.8698,-0.8673,-0.8659,-0.8646,-0.8621,-0.8611,-0.8587,-0.8562,-0.8537,-0.8521,-0.8496,-0.847,-0.8461,-0.846,-0.846,-0.8461,-0.8459,-0.8443,-0.8442,-0.8452,-0.8452,-0.8452,0,0,-0.8776,-0.8755,-0.8745,-0.8711,-0.8693,-0.8673,-0.8665,-0.8644,-0.8628,-0.8607,-0.858,-0.8561,-0.8531,-0.8504,-0.8491,-0.8488,-0.8454,-0.846,-0.8461,-0.8458,-0.8442,-0.8441,-0.844,-0.8452,-0.8452,-0.8452,0,0,-0.877,-0.8753,-0.8736,-0.8718,-0.8691,-0.8674,-0.8671,-0.864,-0.8627,-0.86,-0.8584,-0.8564,-0.8522,-0.8501,-0.8485,-0.8472,-0.8459,-0.8464,-0.8466,-0.8451,-0.845,-0.8449,-0.8443,-0.8442,-0.8462,-0.8462,-0.8462,0,-0.8775,-0.8746,-0.8728,-0.8709,-0.8694,-0.8677,-0.8659,-0.8641,-0.8607,-0.8596,-0.8594,-0.8542,-0.852,-0.8488,-0.8485,-0.8472,-0.8466,-0.8468,-0.8452,-0.8451,-0.845,-0.8444,-0.8442,-0.8463,-0.8463,-0.8463,-0.8463,0,-0.8754,-0.8734,-0.8724,-0.8694,-0.8678,-0.8659,-0.8636,-0.8622,-0.861,-0.8592,-0.8564,-0.8538,-0.8508,-0.8499,-0.8486,-0.8465,-0.8464,-0.8457,-0.8453,-0.845,-0.8444,-0.8442,-0.8464,-0.8464,-0.8464,-0.8463,0,0,-0.8755,-0.8717,-0.8713,-0.8699,-0.8669,-0.8652,-0.8632,-0.8605,-0.8593,-0.857,-0.8551,-0.8517,-0.8511,-0.8493,-0.8477,-0.8464,-0.8454,-0.8459,-0.8457,-0.8458,-0.8428,-0.8433,-0.8431,-0.8446,-0.8446,-0.8446,-0.8431,0,-0.8744,-0.871,-0.8693,-0.8666,-0.8647,-0.8631,-0.8613,-0.8591,-0.8575,-0.8554,-0.8535,-0.8511,-0.8505,-0.8494,-0.8481,-0.8459,-0.8448,-0.8459,-0.8427,-0.8426,-0.8435,-0.8428,-0.8433,-0.842,-0.8428,-0.8428,-0.8428,0,-0.8726,-0.8706,-0.8678,-0.865,-0.8641,-0.8626,-0.86,-0.8582,-0.8556,-0.8545,-0.8526,-0.8511,-0.8487,-0.8486,-0.8452,-0.846,-0.8446,-0.8433,-0.8432,-0.8427,-0.8426,-0.8423,-0.8416,-0.8414,-0.8424,-0.8424,-0.8425,0,-0.873,-0.8695,-0.8673,-0.8662,-0.8629,-0.8619,-0.8604,-0.8579,-0.8564,-0.8541,-0.8531,-0.8504,-0.8489,-0.8467,-0.8445,-0.8446,-0.8413,-0.841,-0.8401,-0.8402,-0.8394,-0.8394,-0.8384,-0.8386,-0.8386,-0.8386,-0.8386,0,-0.8718,-0.8701,-0.8675,-0.8661,-0.8641,-0.8622,-0.8602,-0.8585,-0.8563,-0.8545,-0.8528,-0.8511,-0.8483,-0.8462,-0.8444,-0.8418,-0.8411,-0.84,-0.8395,-0.8401,-0.8402,-0.839,-0.839,-0.8386,-0.8386,-0.8386,-0.8386,0,-0.8718,-0.87,-0.8676,-0.8647,-0.864,-0.8626,-0.8601,-0.8586,-0.857,-0.8547,-0.854,-0.8513,-0.8487,-0.8463,-0.8427,-0.8415,-0.8389,-0.8383,-0.8398,-0.8396,-0.8388,-0.8389,-0.8369,-0.8365,-0.8371,-0.8371,-0.8371,0,-0.8712,-0.8699,-0.867,-0.8658,-0.8645,-0.8625,-0.8611,-0.859,-0.8575,-0.8546,-0.8534,-0.8508,-0.8486,-0.8444,-0.842,-0.8392,-0.8385,-0.838,-0.8381,-0.8387,-0.8384,-0.8385,-0.8383,-0.838,-0.838,-0.838,-0.838,0,-0.8703,-0.8695,-0.8676,-0.8654,-0.8637,-0.8618,-0.8598,-0.8589,-0.8564,-0.8548,-0.8523,-0.8506,-0.8471,-0.8444,-0.8414,-0.8397,-0.8384,-0.8381,-0.8377,-0.8382,-0.8392,-0.8386,-0.8398,-0.8381,-0.8381,-0.8381,-0.8381,-0.8381,-0.8699,-0.8686,-0.8665,-0.8644,-0.8628,-0.861,-0.8595,-0.8578,-0.8557,-0.8529,-0.8518,-0.8492,-0.8466,-0.8425,-0.8408,-0.8385,-0.8383,-0.8378,-0.8376,-0.8375,-0.8376,-0.8396,-0.838,-0.838,-0.838,-0.838,-0.838,0,-0.8688,-0.8674,-0.8655,-0.8629,-0.8613,-0.8605,-0.8583,-0.8569,-0.8547,-0.8526,-0.8505,-0.8476,-0.845,-0.8424,-0.8396,-0.8383,-0.8377,-0.8377,-0.8377,-0.8373,-0.838,-0.8386,-0.8383,-0.8383,-0.8383,-0.8383,-0.8383,-0.8383,-0.868,-0.8659,-0.8649,-0.8619,-0.8604,-0.8581,-0.8569,-0.8552,-0.8534,-0.8504,-0.8483,-0.8468,-0.8444,-0.8414,-0.839,-0.8383,-0.8372,-0.8374,-0.8365,-0.8372,-0.8372,-0.8372,-0.8377,-0.8372,-0.8372,-0.8359,-0.8359,-0.8359]}]]